| time (UTC) | temp C | wind direction | speed KPH | gust KPH | rain 1hr cm | rain 24hr cm | rain mn cm | humidity % | barometer mb |
| 20260901080143 | 11 | 194 | 0.0 | 0.0 | 0.00 | 0.20 | 0.00 | 92 | 1013.0 |
| 20260901074553 | 11 | 194 | 0.0 | 1.6 | 0.00 | 0.20 | 0.00 | 91 | 1013.1 |
| 20260901073052 | 11 | 220 | 0.0 | 0.0 | 0.00 | 0.20 | 0.00 | 91 | 1013.0 |
| 20260901071550 | 11 | 220 | 0.0 | 0.0 | 0.00 | 0.20 | 0.00 | 91 | 1012.9 |
| 20260901070100 | 11 | 220 | 0.0 | 0.0 | 0.00 | 0.20 | 0.00 | 90 | 1012.7 |
| 20260901064559 | 11 | 220 | 0.0 | 0.0 | 0.00 | 0.20 | 0.00 | 90 | 1012.8 |
| 20260901063057 | 11 | 159 | 0.0 | 1.6 | 0.00 | 0.20 | 0.00 | 91 | 1012.8 |
| 20260901061600 | 11 | 209 | 0.0 | 0.0 | 0.00 | 0.20 | 0.00 | 91 | 1012.9 |
| 20260901060044 | 11 | 209 | 0.0 | 0.0 | 0.00 | 0.20 | 0.20 | 90 | 1012.8 |
| 20260901054550 | 11 | 209 | 0.0 | 0.0 | 0.00 | 0.20 | 0.20 | 90 | 1012.8 |
| 20260901053042 | 11 | 209 | 0.0 | 0.0 | 0.00 | 0.20 | 0.20 | 90 | 1012.9 |
| 20260901051542 | 11 | 209 | 0.0 | 0.0 | 0.00 | 0.20 | 0.20 | 89 | 1012.9 |
| 20260901050042 | 11 | 209 | 0.0 | 0.0 | 0.00 | 0.20 | 0.20 | 89 | 1013.0 |
| 20260901044558 | 11 | 209 | 0.0 | 0.0 | 0.03 | 0.20 | 0.20 | 89 | 1013.0 |
| 20260901043042 | 12 | 180 | 0.0 | 4.8 | 0.08 | 0.20 | 0.20 | 88 | 1012.9 |
| 20260901041540 | 12 | 197 | 0.0 | 3.2 | 0.13 | 0.20 | 0.20 | 87 | 1012.5 |
| 20260901040053 | 12 | 197 | 0.0 | 3.2 | 0.13 | 0.20 | 0.20 | 86 | 1013.3 |
| 20260901034540 | 13 | 197 | 0.0 | 0.0 | 0.10 | 0.18 | 0.18 | 84 | 1014.2 |
| 20260901033038 | 13 | 204 | 0.0 | 9.7 | 0.05 | 0.13 | 0.13 | 80 | 1014.4 |
| 20260901031537 | 13 | 232 | 6.4 | 16.1 | 0.00 | 0.08 | 0.08 | 79 | 1013.9 |
| 20260901030039 | 12 | 236 | 0.0 | 0.0 | 0.00 | 0.08 | 0.08 | 82 | 1013.3 |
| 20260901024547 | 12 | 236 | 0.0 | 0.0 | 0.00 | 0.08 | 0.08 | 82 | 1013.0 |
| 20260901023037 | 12 | 236 | 0.0 | 0.0 | 0.00 | 0.08 | 0.08 | 82 | 1013.0 |
| 20260901021543 | 12 | 236 | 0.0 | 1.6 | 0.00 | 0.08 | 0.08 | 81 | 1012.9 |
| 20260901020038 | 13 | 236 | 0.0 | 1.6 | 0.00 | 0.08 | 0.08 | 83 | 1012.9 |
| 20260901014538 | 13 | 236 | 0.0 | 0.0 | 0.03 | 0.08 | 0.08 | 82 | 1013.0 |
| 20260901013035 | 13 | 236 | 0.0 | 3.2 | 0.08 | 0.08 | 0.08 | 82 | 1013.0 |
| 20260901011532 | 13 | 252 | 0.0 | 3.2 | 0.08 | 0.08 | 0.08 | 81 | 1013.1 |
| 20260901010035 | 14 | 244 | 0.0 | 1.6 | 0.08 | 0.08 | 0.08 | 80 | 1013.4 |
| 20260901004529 | 15 | 227 | 3.2 | 11.3 | 0.03 | 0.03 | 0.03 | 72 | 1013.4 |
| 20260901003032 | 15 | 176 | 1.6 | 11.3 | 0.00 | 0.00 | 0.00 | 66 | 1013.0 |
| 20260901001532 | 16 | 281 | 0.0 | 1.6 | 0.00 | 0.00 | 0.00 | 67 | 1012.8 |
| 20260901000027 | 16 | 208 | 0.0 | 8.0 | 0.00 | 0.00 | 0.00 | 64 | 1013.0 |
| 20260831234532 | 17 | 309 | 6.4 | 16.1 | 0.00 | 0.00 | 0.00 | 55 | 1012.8 |
| 20260831233025 | 18 | 206 | 0.0 | 16.1 | 0.00 | 0.00 | 0.00 | 47 | 1012.2 |
| 20260831231536 | 20 | 126 | 4.8 | 12.9 | 0.00 | 0.00 | 0.00 | 42 | 1011.9 |
| 20260831230030 | 21 | 169 | 8.0 | 16.1 | 0.00 | 0.00 | 0.00 | 39 | 1011.4 |
| 20260831224545 | 21 | 174 | 8.0 | 19.3 | 0.00 | 0.00 | 0.00 | 39 | 1011.0 |
| 20260831223023 | 22 | 126 | 3.2 | 12.9 | 0.00 | 0.00 | 0.00 | 39 | 1011.1 |
| 20260831221523 | 22 | 136 | 4.8 | 12.9 | 0.00 | 0.00 | 0.00 | 38 | 1011.3 |
| 20260831220022 | 23 | 124 | 6.4 | 16.1 | 0.00 | 0.00 | 0.00 | 36 | 1011.3 |
| 20260831214525 | 23 | 170 | 3.2 | 12.9 | 0.00 | 0.00 | 0.00 | 35 | 1011.4 |
| 20260831213020 | 23 | 128 | 3.2 | 11.3 | 0.00 | 0.00 | 0.00 | 30 | 1011.7 |
| 20260831211517 | 24 | 148 | 3.2 | 9.7 | 0.00 | 0.00 | 0.00 | 29 | 1012.1 |
| 20260831210017 | 23 | 160 | 1.6 | 11.3 | 0.00 | 0.05 | 0.00 | 31 | 1012.5 |
| 20260831204509 | 23 | 169 | 1.6 | 11.3 | 0.00 | 0.05 | 0.00 | 33 | 1012.7 |
| 20260831203013 | 22 | 207 | 3.2 | 11.3 | 0.00 | 0.05 | 0.00 | 34 | 1013.0 |
| 20260831201506 | 22 | 215 | 0.0 | 16.1 | 0.00 | 0.05 | 0.00 | 36 | 1013.3 |
| 20260831200005 | 22 | 58 | 0.0 | 8.0 | 0.00 | 0.05 | 0.00 | 35 | 1013.4 |
| 20260831194508 | 22 | 149 | 0.0 | 8.0 | 0.00 | 0.05 | 0.00 | 36 | 1013.6 |
| 20260831193103 | 22 | 148 | 4.8 | 14.5 | 0.00 | 0.05 | 0.00 | 34 | 1013.9 |
| 20260831191559 | 21 | 211 | 1.6 | 12.9 | 0.00 | 0.05 | 0.00 | 38 | 1014.0 |
| 20260831190115 | 21 | 129 | 4.8 | 17.7 | 0.00 | 0.05 | 0.00 | 37 | 1014.1 |
| 20260831184559 | 21 | 186 | 6.4 | 17.7 | 0.00 | 0.05 | 0.00 | 38 | 1014.3 |
| 20260831183056 | 21 | 126 | 1.6 | 11.3 | 0.00 | 0.05 | 0.00 | 38 | 1014.3 |
| 20260831181552 | 20 | 294 | 6.4 | 17.7 | 0.00 | 0.05 | 0.00 | 41 | 1014.3 |
| 20260831180050 | 20 | 273 | 3.2 | 14.5 | 0.00 | 0.05 | 0.00 | 43 | 1014.5 |
| 20260831174548 | 20 | 263 | 3.2 | 14.5 | 0.00 | 0.05 | 0.00 | 44 | 1014.9 |
| 20260831173047 | 19 | 197 | 4.8 | 24.1 | 0.00 | 0.05 | 0.00 | 46 | 1014.9 |
| 20260831171540 | 18 | 178 | 1.6 | 17.7 | 0.00 | 0.05 | 0.00 | 47 | 1014.8 |
| 20260831170037 | 18 | 188 | 4.8 | 11.3 | 0.00 | 0.05 | 0.00 | 48 | 1014.9 |
| 20260831164533 | 17 | 304 | 3.2 | 16.1 | 0.00 | 0.05 | 0.00 | 50 | 1015.1 |
| 20260831163032 | 17 | 207 | 1.6 | 9.7 | 0.00 | 0.05 | 0.00 | 51 | 1014.9 |
| 20260831161528 | 15 | 294 | 1.6 | 6.4 | 0.00 | 0.05 | 0.00 | 58 | 1014.8 |
| 20260831160028 | 14 | 294 | 0.0 | 1.6 | 0.00 | 0.05 | 0.00 | 62 | 1014.8 |
| 20260831154521 | 13 | 294 | 0.0 | 3.2 | 0.00 | 0.05 | 0.00 | 65 | 1014.7 |
| 20260831153014 | 13 | 294 | 0.0 | 0.0 | 0.00 | 0.05 | 0.00 | 67 | 1014.8 |
| 20260831151520 | 12 | 294 | 0.0 | 0.0 | 0.00 | 0.05 | 0.00 | 67 | 1014.8 |
| 20260831150011 | 12 | 294 | 0.0 | 0.0 | 0.00 | 0.05 | 0.00 | 67 | 1014.6 |
| 20260831144505 | 12 | 294 | 0.0 | 0.0 | 0.00 | 0.05 | 0.00 | 67 | 1014.7 |
| 20260831143008 | 11 | 294 | 0.0 | 1.6 | 0.00 | 0.05 | 0.00 | 68 | 1014.5 |
| 20260831141601 | 11 | 294 | 0.0 | 0.0 | 0.00 | 0.05 | 0.00 | 68 | 1014.4 |
| 20260831140057 | 11 | 294 | 0.0 | 1.6 | 0.00 | 0.05 | 0.00 | 68 | 1014.1 |
| 20260831134600 | 11 | 309 | 0.0 | 1.6 | 0.00 | 0.05 | 0.00 | 68 | 1013.8 |
| 20260831133053 | 10 | 301 | 0.0 | 1.6 | 0.00 | 0.05 | 0.00 | 68 | 1013.8 |
| 20260831131605 | 10 | 300 | 0.0 | 1.6 | 0.00 | 0.05 | 0.00 | 68 | 1013.7 |
| 20260831124550 | 10 | 300 | 0.0 | 0.0 | 0.00 | 0.05 | 0.00 | 67 | 1013.1 |
| 20260831123046 | 10 | 300 | 0.0 | 1.6 | 0.00 | 0.05 | 0.00 | 67 | 1012.8 |
| 20260831121548 | 10 | 296 | 0.0 | 0.0 | 0.00 | 0.05 | 0.00 | 66 | 1012.6 |
| 20260831120041 | 10 | 292 | 0.0 | 3.2 | 0.00 | 0.05 | 0.00 | 66 | 1012.3 |
| 20260831114538 | 10 | 316 | 0.0 | 1.6 | 0.00 | 0.05 | 0.00 | 65 | 1012.4 |
| 20260831113036 | 11 | 294 | 0.0 | 1.6 | 0.00 | 0.05 | 0.00 | 64 | 1012.2 |
| 20260831111535 | 11 | 289 | 0.0 | 1.6 | 0.00 | 0.05 | 0.00 | 63 | 1012.0 |
| 20260831110035 | 11 | 288 | 0.0 | 1.6 | 0.00 | 0.05 | 0.00 | 63 | 1011.8 |
| 20260831104536 | 11 | 288 | 0.0 | 1.6 | 0.00 | 0.05 | 0.00 | 63 | 1011.8 |
| 20260831103033 | 11 | 285 | 0.0 | 1.6 | 0.00 | 0.05 | 0.00 | 63 | 1011.5 |
| 20260831101531 | 11 | 284 | 0.0 | 1.6 | 0.00 | 0.05 | 0.00 | 64 | 1011.4 |
| 20260831100046 | 11 | 292 | 0.0 | 0.0 | 0.00 | 0.05 | 0.00 | 63 | 1011.0 |
| 20260831094531 | 11 | 297 | 0.0 | 4.8 | 0.00 | 0.05 | 0.00 | 63 | 1011.1 |
| 20260831093040 | 11 | 283 | 0.0 | 1.6 | 0.00 | 0.05 | 0.00 | 63 | 1010.9 |
| 20260831091525 | 11 | 291 | 0.0 | 3.2 | 0.00 | 0.05 | 0.00 | 63 | 1010.9 |
| 20260831090022 | 12 | 286 | 0.0 | 3.2 | 0.00 | 0.05 | 0.00 | 61 | 1010.8 |
| 20260831084521 | 12 | 298 | 1.6 | 6.4 | 0.00 | 0.05 | 0.00 | 60 | 1010.7 |
| 20260831083017 | 12 | 287 | 0.0 | 3.2 | 0.00 | 0.05 | 0.00 | 60 | 1010.9 |